Theta_e
344 344 343 342 341 342 341 341 341 340 341 341 336 332 330 331 334 337 340 340 340 340 341 341 341 342 342 342 342 341 340 338 337 337 338 340 341 342 342 341 343 344 344 342 342 343 343 343 343 343 343 344 346 346 346 344 343 343 345 343 339 331 325 331 339 344 345 344 344 342 339 338 341 343 343 342 342 342 341 339 338 340 341 342 342
343 344 344 342 341 341 341 341 342 341 342 338 333 330 330 334 339 341 342 341 341 341 342 342 342 342 342 343 343 343 342 342 341 341 341 341 342 343 343 342 342 342 343 343 343 343 343 343 343 343 344 344 346 346 345 344 343 344 343 335 325 320 323 333 341 344 344 344 343 341 339 338 341 343 343 342 342 342 342 341 340 340 341 342 342
342 343 343 342 341 341 341 342 342 342 341 335 330 329 331 336 340 341 341 341 341 341 342 342 342 341 341 342 343 343 343 343 343 342 342 342 343 344 344 343 342 341 341 342 342 342 343 342 343 343 343 344 345 345 345 344 344 343 333 321 315 316 327 338 341 343 343 343 342 341 339 340 342 343 343 342 342 342 343 343 342 342 341 341 342
341 342 342 343 342 342 342 343 342 342 340 335 332 330 333 336 338 339 339 340 341 342 343 343 343 343 342 341 342 343 343 343 342 342 343 342 343 343 343 343 344 342 341 342 342 342 342 343 344 344 344 343 344 345 345 344 344 339 325 320 317 315 330 340 342 343 342 342 340 339 339 342 343 343 343 342 341 341 342 342 342 342 341 341 341
341 341 342 342 342 342 343 343 343 343 339 333 331 332 337 338 338 339 340 340 341 343 344 344 343 343 343 342 343 343 342 342 341 341 342 342 342 342 342 342 343 343 342 343 342 343 343 343 343 343 344 343 345 345 344 344 344 338 329 330 325 318 328 337 339 340 339 338 338 340 342 343 343 343 343 342 342 342 342 341 341 341 341 341 340
341 342 342 342 342 342 343 344 344 340 333 328 329 334 339 340 341 341 341 342 343 344 344 342 341 341 342 343 344 343 343 342 341 341 341 342 342 342 342 343 344 343 342 343 343 344 343 342 342 342 343 344 345 345 344 343 343 340 333 335 336 331 331 335 337 338 339 339 340 342 343 343 343 343 343 342 342 341 341 341 341 341 341 340 340
341 342 342 341 342 341 342 344 340 332 327 329 333 337 340 342 343 342 342 343 343 343 342 341 341 342 343 343 344 343 343 343 342 342 342 342 343 343 343 343 343 344 344 343 343 343 343 342 341 342 343 344 344 344 344 344 343 342 336 334 340 341 340 340 340 340 341 341 341 341 342 342 343 343 343 342 342 341 341 341 341 340 339 339 340
341 342 341 341 342 341 343 342 334 327 329 335 338 340 342 343 343 343 343 344 343 342 342 343 343 344 344 343 344 344 344 343 342 343 342 343 344 344 343 343 344 344 344 343 343 343 342 342 342 342 343 343 344 343 344 344 343 343 338 333 336 340 342 341 341 341 341 340 340 341 342 342 343 344 343 343 342 342 342 341 340 338 338 338 339
342 341 341 342 342 342 344 339 330 329 335 339 341 343 343 343 343 343 343 343 343 343 343 344 344 344 344 344 344 344 345 344 343 343 343 343 344 345 344 344 344 344 342 342 342 342 342 342 343 343 343 343 344 343 343 343 342 342 340 335 334 336 338 339 339 339 340 341 341 341 342 343 343 343 343 343 342 342 342 341 340 338 337 337 337
341 340 341 342 342 345 343 334 329 334 339 341 343 343 343 342 343 343 343 343 343 344 344 344 345 344 344 344 344 344 345 345 344 343 344 344 344 345 345 344 344 344 342 342 342 342 342 342 343 343 343 344 344 343 342 342 342 342 340 337 334 334 336 336 338 339 340 341 341 341 341 342 342 342 343 343 342 342 341 341 340 339 338 337 336
340 341 342 343 343 343 337 329 331 338 341 341 342 342 342 342 342 343 343 344 344 344 344 344 345 344 344 344 344 344 344 345 344 344 344 344 343 344 346 344 343 343 343 342 341 341 342 342 342 343 343 343 343 341 341 341 342 341 340 340 337 336 335 337 339 339 340 340 340 339 339 340 341 343 343 342 342 341 342 343 341 340 339 336 335
341 342 343 343 340 335 329 328 335 340 340 341 342 342 342 342 343 343 344 344 344 343 343 344 344 343 343 343 343 343 344 344 344 344 344 344 344 344 346 345 342 342 342 341 341 341 342 342 342 342 341 341 341 341 341 341 341 341 340 340 339 337 335 337 339 339 339 337 336 334 334 334 336 339 341 342 342 342 342 342 341 340 339 335 335
340 341 341 338 333 329 325 331 338 340 341 341 342 341 342 342 343 344 345 345 344 343 343 344 342 341 342 343 343 344 344 344 344 344 343 344 344 344 345 345 342 341 341 341 340 341 342 341 341 340 339 339 340 341 341 341 340 341 340 338 339 337 335 336 337 337 336 334 333 332 331 329 329 331 333 338 341 341 341 340 340 340 337 334 335
339 339 338 334 332 331 328 335 340 340 341 342 342 342 342 343 343 344 345 345 345 344 343 343 342 342 343 344 344 344 344 344 344 344 344 344 344 343 344 344 342 342 341 341 340 341 341 341 340 339 338 338 339 340 340 340 340 341 341 339 339 338 337 337 337 336 336 334 334 332 331 329 329 329 329 333 337 339 339 339 339 339 336 335 335
337 336 336 333 333 332 332 338 341 341 342 342 342 342 342 344 344 344 345 344 344 344 344 342 341 342 343 343 343 344 344 345 344 344 344 343 343 343 343 343 343 342 342 341 340 340 341 340 339 339 338 338 338 339 339 340 341 342 343 342 340 338 337 337 337 337 336 335 334 332 331 330 331 331 330 330 333 335 337 337 338 337 335 335 335
335 335 335 333 331 331 336 341 342 342 342 342 342 343 343 343 344 345 345 344 344 344 344 342 342 342 341 342 343 344 344 345 345 344 344 343 342 342 342 343 343 342 342 341 341 340 340 339 339 339 338 338 338 339 340 341 342 343 343 343 340 338 337 337 337 337 337 336 335 335 333 332 331 331 331 331 332 334 334 335 335 334 334 334 334
336 336 335 332 330 331 337 341 342 342 342 342 343 342 343 344 344 344 344 344 344 344 343 342 342 341 340 340 342 343 344 344 344 344 344 343 342 342 342 343 342 343 342 341 341 340 339 339 339 339 338 338 340 341 341 342 342 343 343 342 340 338 338 338 338 338 338 338 337 337 337 336 333 331 330 331 331 331 332 332 333 334 334 333 333
336 336 334 332 330 331 336 340 341 342 342 343 343 342 343 343 344 344 344 344 343 343 342 342 341 340 338 339 341 343 344 344 344 344 343 343 343 343 343 342 342 343 342 341 341 341 340 339 339 338 336 338 341 342 342 342 342 343 343 342 340 338 338 338 338 338 338 339 339 339 339 339 337 334 331 330 330 330 331 332 334 334 334 333 334
336 335 333 330 329 330 335 340 342 343 343 343 343 343 343 343 343 343 343 344 344 343 343 343 342 341 339 338 340 342 344 345 344 344 344 343 343 342 342 342 342 342 343 343 342 340 340 339 338 336 334 338 342 343 342 343 343 343 344 343 341 339 339 338 337 338 339 339 339 338 338 338 338 336 333 330 329 330 332 334 334 334 333 333 334
335 333 331 330 330 331 334 339 341 342 343 343 343 343 344 343 343 343 343 344 343 343 343 344 344 343 341 339 340 342 344 345 345 344 344 344 342 341 341 341 341 342 342 343 342 340 339 337 335 334 336 340 342 343 344 343 343 344 344 343 340 338 338 337 337 338 339 338 338 338 338 338 337 337 335 332 331 331 332 333 333 333 332 332 332
334 332 331 330 331 333 335 339 341 341 341 341 341 343 344 343 344 343 343 344 343 343 344 345 344 344 342 339 339 341 343 344 344 344 343 343 342 341 341 341 341 341 341 341 341 340 338 335 332 334 337 340 342 343 344 343 343 344 343 341 337 335 336 337 338 338 338 338 338 338 337 337 337 337 336 335 334 333 331 330 331 332 332 331 331
333 332 332 331 333 335 338 339 340 340 340 340 340 343 344 343 343 343 343 344 344 344 345 345 344 343 341 338 338 340 341 342 342 342 342 342 341 341 341 340 340 340 339 339 339 338 337 334 332 333 336 340 341 342 343 343 343 343 342 340 337 335 336 338 338 338 337 337 337 337 337 337 336 336 336 336 335 332 329 329 330 331 332 332 332
332 333 332 333 336 339 340 340 340 339 339 340 340 342 343 342 343 344 343 345 344 344 345 345 344 343 340 338 338 339 340 340 341 341 341 341 341 340 339 339 339 339 338 338 337 336 333 332 333 334 338 340 342 343 343 343 343 343 342 341 340 338 337 338 338 337 337 337 338 337 337 337 336 336 336 335 334 331 328 328 329 330 331 331 332
333 333 333 335 339 341 343 341 340 339 339 340 341 341 342 341 343 343 343 344 343 343 344 345 344 342 340 339 338 338 339 340 341 341 340 341 341 339 338 337 337 337 337 337 335 334 332 333 336 338 341 342 343 344 344 344 343 344 342 341 340 339 338 338 338 338 337 337 337 337 336 336 336 337 337 336 334 331 328 328 329 329 330 331 332
333 335 335 337 340 342 344 342 341 340 340 340 340 341 340 341 342 343 343 342 342 342 344 344 344 342 340 339 339 339 338 338 341 341 339 339 339 339 337 335 334 334 334 335 335 334 334 336 339 342 343 342 343 344 344 344 344 343 342 341 338 334 333 333 335 336 337 337 337 337 337 336 336 336 336 335 333 331 329 329 329 330 330 331 332
337 338 339 340 342 344 344 343 343 341 340 340 340 339 339 340 342 343 342 341 340 340 341 342 343 341 339 339 340 340 337 336 339 339 338 337 337 336 335 333 333 334 334 335 336 337 338 339 341 342 342 342 342 343 344 344 344 343 341 340 337 330 328 328 328 330 333 336 337 336 336 336 336 336 335 334 333 331 330 330 330 331 331 332 332
342 343 343 343 344 344 344 343 343 341 341 341 340 339 339 340 342 343 341 340 340 340 340 340 341 340 339 339 339 339 337 336 337 337 336 335 334 332 332 333 334 334 335 336 338 339 340 341 341 342 342 342 342 342 343 344 344 344 341 339 337 332 328 327 326 326 329 333 334 333 333 333 333 334 334 333 332 332 332 332 332 332 332 332 332
345 346 346 346 345 344 343 343 343 342 342 342 341 340 340 340 341 342 341 341 342 342 340 340 340 339 339 338 338 337 336 334 335 335 334 333 333 333 334 335 336 337 337 338 340 341 341 342 341 342 342 342 342 343 344 344 344 344 342 339 337 334 331 329 328 327 329 330 331 330 330 331 331 332 332 332 333 333 333 333 333 333 332 332 331
346 347 346 346 346 344 344 343 343 342 342 342 341 340 340 339 339 340 341 342 343 342 340 340 340 339 338 338 337 336 334 334 335 335 335 335 335 337 338 339 339 340 340 341 341 341 341 342 342 342 342 342 342 343 343 344 344 344 343 340 338 338 334 332 331 331 331 331 331 332 332 332 332 332 332 333 333 333 333 332 332 331 331 331 330
347 346 346 348 346 343 344 344 342 342 342 342 342 340 338 338 339 339 340 342 343 342 340 340 340 339 338 338 338 336 334 334 336 337 338 340 340 340 340 341 342 342 342 342 342 342 342 342 342 342 342 342 342 342 342 342 343 343 342 341 341 341 338 337 336 334 333 333 333 333 333 332 332 332 332 332 331 330 329 329 329 329 329 329 329
348 348 348 348 344 342 345 345 343 343 343 344 343 341 339 339 340 340 340 341 343 343 342 341 341 340 339 339 339 338 335 336 338 339 340 341 342 342 341 342 342 342 342 342 342 343 343 343 343 342 342 342 342 342 342 342 342 343 344 344 344 343 342 342 341 335 332 332 331 331 331 330 330 330 329 329 328 327 326 326 326 326 326 326 326
350 349 349 348 344 344 346 346 344 344 345 345 344 343 342 340 340 341 342 343 344 343 343 343 343 343 342 341 341 340 338 339 341 341 340 340 342 343 343 342 343 343 343 342 342 343 343 344 344 343 343 343 342 343 344 343 343 345 345 345 345 344 343 344 342 338 336 334 331 331 331 330 329 329 328 327 326 325 324 324 323 324 323 323 323
351 350 349 347 346 346 347 347 346 345 346 346 344 344 343 343 343 343 344 345 345 344 344 345 345 345 344 343 343 341 339 341 343 342 341 340 340 342 343 344 344 345 345 344 344 344 344 344 345 344 344 344 343 344 344 345 345 345 346 346 345 345 344 344 343 341 341 339 335 336 336 331 328 328 327 325 325 324 323 323 323 322 322 322 321
350 350 350 347 347 347 347 348 347 346 347 346 345 345 345 345 346 345 345 345 345 345 345 345 345 345 345 344 344 343 341 342 343 343 342 341 341 342 344 345 345 346 345 345 345 345 345 345 345 345 345 345 345 345 345 346 346 345 346 346 346 345 345 344 344 343 341 338 335 336 336 331 327 326 325 324 324 323 323 323 322 322 322 322 322
350 350 350 349 348 347 347 348 348 348 348 347 345 345 346 346 347 346 345 346 347 347 346 345 345 345 345 345 343 343 343 343 344 344 343 343 343 344 345 346 346 346 346 345 346 346 346 346 345 345 345 345 345 345 346 346 346 346 346 346 346 346 345 344 344 344 342 339 337 336 333 334 334 328 324 324 323 323 323 323 323 322 323 323 323
349 351 351 350 349 348 347 347 349 349 348 347 346 346 347 347 347 347 347 348 348 347 346 344 345 345 345 345 344 343 343 343 345 345 344 343 344 344 345 346 347 347 347 346 347 347 347 346 346 346 345 345 346 346 346 346 346 346 346 347 346 346 346 345 344 345 343 342 342 339 335 337 339 332 325 324 324 323 324 323 323 323 324 325 326
350 350 350 350 350 349 347 348 349 349 348 347 347 347 347 348 348 348 347 347 347 345 344 344 345 345 345 344 344 344 343 343 344 345 345 344 344 345 346 347 348 347 348 347 348 347 347 347 347 346 346 346 346 346 346 346 346 346 346 346 346 346 346 345 344 344 344 343 343 342 338 338 339 336 330 325 324 324 324 324 325 325 326 327 328
349 349 348 349 351 349 346 348 349 349 349 348 347 346 346 347 348 348 346 345 343 341 341 342 344 345 344 344 344 345 345 344 344 344 344 344 345 346 347 348 348 348 347 347 347 347 347 347 347 347 346 346 346 346 346 345 345 346 347 347 347 347 347 346 344 343 343 342 343 343 341 339 338 338 336 332 328 325 325 326 326 327 328 329 329
348 347 347 348 350 348 347 349 349 350 351 348 347 346 345 347 348 348 348 346 344 341 339 339 342 344 344 344 344 345 346 345 344 344 343 343 344 346 347 348 347 347 347 347 347 347 347 348 348 347 346 346 346 346 346 346 346 347 347 347 347 348 347 347 345 342 342 342 343 343 342 341 339 338 339 339 334 327 326 327 328 329 329 329 329
347 346 347 348 348 347 347 349 349 351 351 348 347 346 347 348 348 349 349 348 348 345 341 339 340 342 343 343 343 345 346 347 346 344 343 342 343 344 345 345 346 346 346 347 347 347 348 349 348 348 347 346 346 346 346 346 346 347 346 344 345 346 346 346 346 344 342 342 343 344 343 342 338 336 339 340 335 329 328 329 329 330 329 329 329
346 346 347 348 347 347 348 348 349 351 349 347 348 346 347 349 349 349 348 348 349 347 343 340 339 340 341 341 342 344 347 348 348 346 344 343 342 342 343 344 345 345 345 345 347 348 349 349 348 348 347 347 347 347 346 346 346 346 345 342 343 345 344 345 345 344 344 343 342 343 344 341 337 335 338 339 335 331 330 330 330 330 329 330 329
344 346 347 347 346 346 348 348 348 349 347 347 347 344 346 347 348 348 348 348 348 346 345 344 343 340 340 342 342 343 345 347 348 347 345 343 341 341 342 344 346 347 347 345 346 348 348 348 348 348 347 347 347 347 346 345 346 344 344 342 342 343 343 343 343 343 344 344 343 343 343 341 339 339 338 337 333 332 332 331 330 330 330 329 329
343 346 347 347 346 346 347 346 346 347 346 346 346 342 344 346 347 348 348 348 347 347 347 348 349 345 341 343 342 342 344 345 346 347 346 344 342 342 343 344 346 347 347 345 344 346 348 349 349 348 348 347 347 346 345 345 345 343 343 343 343 343 343 343 343 342 342 342 343 343 343 341 341 341 338 336 335 335 337 336 332 330 330 329 330
343 346 347 346 346 345 346 345 344 345 344 344 344 342 344 346 347 348 348 348 348 349 349 350 351 348 343 342 343 342 343 343 344 344 345 345 344 344 344 345 347 346 345 344 343 343 345 347 348 348 347 347 346 345 345 344 343 342 343 343 343 343 343 343 342 342 341 342 342 342 343 342 342 341 338 337 337 337 339 339 336 332 331 329 330
343 345 346 346 346 345 345 344 342 343 342 342 344 343 344 348 348 348 349 349 349 350 351 350 351 348 344 343 343 343 343 344 345 344 344 345 345 344 345 345 346 345 343 343 342 341 341 343 346 348 348 347 347 346 346 346 344 343 343 343 344 344 344 344 343 343 342 342 341 341 342 341 342 342 339 338 337 337 339 340 339 338 338 333 330
344 345 346 345 346 345 345 346 343 341 340 341 343 344 345 348 349 349 350 350 350 351 351 349 349 346 343 343 344 343 343 344 345 345 345 345 344 344 345 345 344 343 341 340 341 342 341 341 345 348 348 348 347 347 346 346 346 345 345 345 345 345 345 344 343 343 343 343 341 341 341 341 341 341 339 340 339 339 341 341 341 343 343 339 334
344 344 345 345 346 345 345 346 345 341 339 340 343 345 346 348 350 349 350 350 349 350 351 350 349 347 344 344 344 342 343 344 344 345 344 345 344 344 345 344 343 342 342 341 341 342 342 344 346 347 348 348 348 348 346 345 345 345 346 346 346 346 346 345 344 343 341 340 340 341 341 341 341 341 341 342 342 342 342 341 342 344 346 344 339
344 344 344 345 345 346 345 345 345 342 339 339 342 345 346 349 350 350 350 350 348 350 352 351 351 349 345 344 344 343 343 344 344 345 345 345 344 344 345 344 344 344 344 343 342 342 344 345 345 346 348 349 349 348 346 344 344 345 347 347 346 346 346 346 344 343 342 340 340 340 342 341 339 341 342 343 342 342 341 341 342 344 347 347 342
344 344 344 344 344 344 344 344 345 342 339 339 341 344 347 349 351 350 351 351 349 350 352 353 352 349 345 344 344 343 344 345 345 346 345 345 345 345 345 344 344 345 346 346 346 346 346 345 344 346 348 349 349 348 346 344 343 346 347 347 347 346 347 346 344 344 344 343 342 340 341 341 339 341 343 343 343 343 342 342 343 344 347 349 347
343 344 344 344 343 343 344 345 345 342 340 339 340 343 347 350 351 350 350 350 350 351 352 352 351 349 346 345 344 343 345 345 345 347 346 345 346 346 346 345 344 346 348 349 348 348 348 347 346 346 348 349 348 348 347 345 345 346 347 347 348 347 346 345 343 345 345 344 345 343 341 340 339 341 343 343 344 344 343 343 343 345 346 347 348
343 344 343 343 344 343 344 346 345 341 340 339 340 342 346 350 351 350 350 350 351 351 352 351 351 349 348 347 346 344 345 345 345 347 346 345 345 346 346 346 345 345 347 348 348 348 349 350 348 345 346 347 348 348 347 346 346 346 347 347 347 346 346 345 344 346 346 344 345 344 343 341 339 341 344 343 344 345 343 343 343 345 346 346 348
Wind_Speed
22 22 21 20 20 20 20 19 17 16 15 15 16 16 16 15 15 14 14 14 14 14 14 14 14 15 15 16 16 16 15 14 14 15 15 16 16 16 16 15 15 15 14 14 14 14 14 14 14 15 16 17 18 20 20 20 19 19 18 17 16 17 21 22 22 22 22 21 21 20 19 19 19 19 19 19 19 19 19 21 22 22 22 20 20
23 22 22 21 21 21 19 18 16 15 14 14 15 15 15 15 15 14 14 14 14 14 13 13 13 13 14 14 15 15 14 14 14 14 15 15 15 16 16 15 15 14 14 14 14 14 13 13 14 15 17 17 18 19 20 20 19 19 17 17 17 19 22 22 21 21 20 20 19 19 19 18 19 19 19 18 18 19 19 21 21 22 21 20 19
23 22 22 22 21 20 18 17 15 14 14 14 14 14 14 14 14 14 14 13 13 13 13 13 13 13 13 13 14 14 14 13 12 13 14 14 14 15 16 15 14 13 13 13 14 14 13 13 14 15 17 18 18 18 19 20 20 19 17 17 19 22 24 23 21 20 19 19 18 19 19 18 19 18 18 18 18 19 19 20 20 21 20 19 19
23 22 22 21 20 20 17 16 15 14 14 13 13 13 13 13 13 13 13 13 13 13 12 12 12 12 12 12 12 12 12 12 12 12 13 13 14 14 14 15 14 13 13 13 13 14 14 14 14 15 16 18 18 18 19 21 20 19 19 20 21 23 24 23 20 20 19 18 18 19 20 19 19 18 18 18 18 18 18 19 19 19 19 18 18
22 22 23 22 20 19 17 16 14 13 12 12 12 12 13 13 13 12 12 12 12 12 12 11 11 11 11 12 12 11 12 12 11 12 13 13 15 15 14 14 14 13 13 13 13 14 14 15 15 16 16 17 18 18 19 21 21 19 20 21 22 23 23 21 20 19 19 19 19 19 20 19 20 19 18 17 18 18 18 18 18 18 18 17 17
23 23 23 22 21 19 17 16 14 13 12 12 12 12 12 12 12 12 12 11 11 11 10 10 10 11 11 11 12 11 11 11 11 12 13 13 14 14 14 14 14 14 14 13 13 14 15 15 16 16 16 17 18 20 20 21 21 19 19 21 22 22 22 20 19 19 19 19 19 19 19 19 19 18 17 17 17 17 17 18 18 17 17 16 16
23 24 23 21 21 19 18 16 15 14 13 12 12 12 12 12 11 11 11 11 10 10 10 10 10 11 11 11 12 12 12 12 11 11 12 14 14 14 14 15 14 14 14 14 14 15 15 16 16 16 17 18 19 20 21 21 21 19 18 20 21 21 21 20 19 19 19 18 18 18 18 18 18 17 16 16 16 17 17 17 17 16 15 14 14
25 24 23 22 21 20 18 16 15 14 13 13 13 12 12 11 11 11 10 10 10 10 10 11 11 11 11 12 12 13 12 12 12 12 12 14 14 14 14 15 14 14 14 14 15 16 16 17 18 18 19 19 19 20 20 20 20 19 18 19 20 20 20 19 19 18 18 18 17 17 17 18 18 17 15 15 16 16 16 16 15 14 14 13 13
26 25 24 22 21 19 17 16 15 14 13 13 13 12 11 11 10 11 11 11 11 11 12 11 12 12 12 12 13 13 13 12 12 12 12 13 14 15 16 16 15 15 15 14 16 17 17 18 19 19 19 19 19 19 20 20 19 19 18 18 19 18 18 18 18 17 17 17 17 17 17 18 17 16 15 15 16 15 15 14 14 14 14 13 13
26 25 24 22 21 18 16 16 15 14 13 13 13 12 11 11 11 11 11 12 12 12 13 12 12 12 12 13 13 13 12 12 12 12 12 12 13 15 16 17 16 15 15 15 16 18 18 19 19 20 20 19 19 20 20 20 19 19 18 18 17 17 17 17 17 16 16 16 16 16 16 16 17 16 15 14 15 15 14 14 14 13 13 13 13
26 25 24 22 21 18 17 16 15 14 14 13 12 12 11 11 12 12 12 12 13 13 13 13 12 12 12 12 12 12 12 12 12 12 12 12 12 13 15 17 17 16 17 16 17 19 19 19 20 20 20 20 20 21 21 20 19 19 18 17 17 16 15 16 16 15 15 15 15 15 14 14 15 15 15 14 15 15 14 14 13 12 12 12 12
26 25 24 22 20 18 17 16 16 15 14 13 12 12 11 12 12 12 12 13 14 14 13 13 13 12 12 12 12 13 12 12 12 12 11 11 12 13 14 17 17 17 18 18 18 19 20 20 20 20 20 20 20 20 21 20 19 18 18 16 16 15 15 15 15 15 14 14 14 13 13 13 13 14 14 14 15 14 13 13 12 11 11 11 11
26 24 24 22 21 19 17 16 16 15 14 13 12 12 12 12 13 13 13 14 15 14 14 13 13 13 13 13 13 13 12 12 12 12 11 12 12 13 14 16 17 17 18 19 20 21 21 20 20 20 19 19 19 19 19 19 19 18 17 16 15 14 14 15 15 15 14 14 14 14 14 15 14 13 13 13 13 13 12 11 11 11 10 10 11
26 24 23 22 20 17 16 16 15 14 13 12 11 12 12 12 13 13 14 14 14 14 14 14 13 13 13 13 13 13 13 13 12 12 12 12 13 13 15 16 17 17 18 19 20 21 21 20 20 19 18 18 18 18 18 18 18 17 16 15 15 14 15 15 14 14 14 14 14 15 15 16 15 14 13 12 12 12 11 10 10 9 9 10 11
25 24 23 21 19 17 16 16 15 14 12 12 11 11 12 12 13 14 14 14 14 14 14 14 14 14 13 13 13 14 13 13 13 13 13 13 14 14 15 16 17 18 18 19 20 20 20 20 19 18 18 18 18 18 18 18 17 16 16 15 14 14 15 14 14 13 13 13 14 15 15 16 15 15 14 13 12 11 10 10 9 8 9 11 11
24 24 22 20 19 17 16 15 14 13 12 11 11 12 12 12 13 13 14 14 14 14 14 14 14 14 14 14 14 14 15 14 14 14 14 14 15 14 15 16 17 18 19 20 21 20 20 19 19 18 19 19 19 19 18 17 17 16 15 14 13 13 13 13 13 12 12 12 12 13 14 15 15 14 14 14 13 12 11 10 9 9 10 10 10
24 23 22 20 19 17 16 15 14 12 12 11 11 12 12 12 13 13 14 14 14 14 14 14 14 14 14 15 14 14 15 15 15 15 14 14 15 15 15 16 17 18 19 20 21 20 19 19 18 18 19 19 19 19 19 17 16 16 15 13 12 12 12 12 12 11 11 11 11 12 13 13 13 13 13 13 13 12 10 9 9 9 10 10 10
24 22 21 19 18 16 15 15 14 13 12 12 12 12 12 12 13 13 13 14 14 14 15 15 14 15 15 15 15 15 15 15 16 15 15 15 15 16 16 17 17 18 19 20 20 19 19 18 18 19 20 20 19 19 19 18 16 15 14 12 11 11 11 10 10 10 10 10 10 11 11 12 12 11 11 12 12 11 10 9 9 9 9 9 9
22 21 19 17 16 15 15 15 14 13 13 13 13 12 12 12 12 13 13 14 14 14 14 15 15 15 14 14 15 15 15 15 16 16 16 16 15 16 16 18 18 18 19 19 19 18 18 18 18 20 21 20 18 18 18 17 16 14 13 12 11 11 11 9 9 9 9 9 10 10 10 10 10 10 10 11 10 10 9 9 9 9 9 9 8
21 19 18 16 15 15 14 14 13 13 12 13 13 13 12 12 12 12 14 14 14 14 14 15 15 15 14 13 14 15 15 15 15 16 16 16 16 16 17 18 19 19 19 19 18 17 17 19 20 21 22 21 18 18 17 16 15 14 13 12 11 11 11 9 8 8 8 9 9 8 9 9 9 9 9 9 9 9 8 8 8 8 8 8 7
20 19 17 16 15 15 14 13 13 12 12 13 13 13 13 13 13 13 14 14 14 14 15 15 15 15 14 13 14 15 15 15 16 16 16 17 17 17 17 18 19 19 19 18 18 17 18 20 21 21 21 20 18 17 16 15 14 13 12 11 10 10 10 9 8 8 8 8 8 7 8 8 8 8 8 8 8 8 8 8 8 7 7 6 6
22 20 17 17 16 15 14 13 13 12 12 12 12 13 14 14 15 15 15 15 15 14 15 16 15 15 14 14 15 16 16 15 16 17 17 18 18 17 18 18 19 19 19 18 18 17 17 19 20 19 18 18 16 16 15 14 13 11 10 10 11 9 8 9 8 8 8 7 7 7 7 7 8 8 7 7 7 7 7 6 6 6 6 5 5
23 21 19 17 16 15 14 13 13 12 12 11 12 13 14 15 15 16 16 15 15 15 15 15 15 14 14 15 16 17 17 16 16 17 18 18 18 18 18 18 18 18 18 18 18 19 19 19 20 19 18 17 16 15 14 12 10 9 8 9 9 8 7 7 7 7 7 6 6 6 6 6 7 7 6 6 6 6 5 5 5 5 5 4 4
24 21 19 17 15 14 13 13 12 12 12 11 12 13 14 15 15 16 16 15 15 16 15 14 14 14 15 15 16 17 17 17 16 17 19 19 19 19 19 19 19 19 19 19 20 21 21 21 21 20 18 16 15 15 13 11 10 9 8 8 8 7 6 6 6 6 5 5 5 5 6 6 6 6 6 5 5 4 4 4 4 4 4 3 3
23 20 19 17 14 13 12 12 12 12 11 11 12 13 14 15 15 16 16 15 15 16 15 13 13 13 15 15 15 15 16 17 17 18 19 19 20 19 19 20 20 20 20 20 21 22 22 22 21 19 17 16 16 15 14 12 10 9 9 8 8 6 6 5 5 4 4 4 4 4 5 5 5 5 5 4 4 3 3 3 3 3 3 3 2
20 19 18 16 15 14 13 12 12 12 11 11 11 12 13 14 15 15 15 16 16 16 15 14 13 13 14 15 15 14 15 17 18 19 20 19 20 20 20 21 21 21 21 21 21 21 21 20 19 17 16 15 15 14 13 11 9 8 8 9 8 7 6 5 4 4 4 4 4 4 5 5 5 4 4 4 3 2 2 3 3 2 2 2 2
19 19 17 16 16 14 13 12 12 13 12 11 11 11 12 13 14 14 15 16 15 15 15 14 14 14 14 15 15 15 16 18 18 19 20 20 20 21 21 21 21 21 21 21 21 21 20 19 18 17 16 14 12 12 11 10 7 6 7 9 8 8 7 7 6 5 5 5 5 5 5 5 5 4 4 3 2 2 2 2 2 2 2 2 2
19 18 17 17 16 14 14 12 11 12 13 12 11 11 12 13 14 14 15 14 14 14 14 14 14 14 15 16 16 16 18 19 19 19 20 20 20 20 20 20 20 20 20 20 19 18 18 17 16 15 15 13 12 12 11 9 6 3 5 7 8 7 8 8 7 7 6 6 6 5 5 6 5 5 4 3 3 3 2 2 2 2 2 3 3
19 18 17 17 16 15 14 12 12 12 12 12 11 11 12 14 14 14 14 13 13 14 14 14 14 16 16 17 17 17 19 20 20 19 19 20 20 20 20 20 19 19 18 17 17 16 16 16 15 14 13 12 12 11 10 9 6 3 2 5 6 6 7 8 8 7 7 6 6 5 5 5 5 4 3 3 2 2 2 2 2 2 2 3 4
19 18 18 16 16 15 14 13 12 12 12 12 12 13 12 13 14 13 13 12 13 13 14 15 14 16 16 16 16 17 19 20 20 19 19 18 19 19 19 20 19 18 17 16 16 16 16 15 13 12 11 11 10 9 9 8 7 4 2 5 6 7 7 8 7 6 6 6 6 5 5 5 5 4 3 3 3 2 3 3 3 3 3 4 4
20 19 18 16 16 15 14 13 13 13 13 12 12 12 12 13 13 13 12 11 12 12 13 14 14 15 16 15 15 16 18 18 17 17 17 16 17 18 18 18 18 17 16 16 16 16 16 14 12 11 11 10 9 8 8 7 7 6 6 7 8 9 8 8 9 7 6 6 6 6 5 5 5 5 4 4 4 4 4 4 5 5 5 6 6
21 20 17 16 16 14 14 13 13 13 12 13 13 12 12 12 11 12 11 11 11 11 12 13 14 14 15 15 14 16 18 17 15 15 16 16 16 17 17 17 16 15 15 15 15 14 14 13 12 11 10 9 8 7 7 7 6 7 7 7 7 8 8 9 10 8 8 7 6 6 6 6 5 5 5 5 5 6 6 6 6 7 7 8 8
20 19 17 16 15 14 14 12 12 12 11 13 13 12 12 11 10 10 10 10 10 11 11 11 13 13 14 14 14 16 17 15 14 14 15 15 16 17 17 17 15 14 13 13 12 12 12 11 11 10 10 9 9 7 6 6 4 4 4 4 4 5 7 9 9 8 9 7 5 5 5 6 6 6 7 7 7 7 8 8 8 9 9 9 9
20 20 19 16 14 14 14 12 12 12 12 13 13 12 12 11 10 10 10 9 9 10 10 11 13 13 13 14 14 15 15 14 13 13 15 16 16 17 17 16 14 13 12 11 11 12 12 12 11 11 10 11 11 9 7 5 4 2 2 1 1 3 5 6 7 8 9 8 6 5 5 7 8 8 9 9 9 9 9 9 9 10 10 10 10
21 22 21 17 15 14 14 14 13 12 13 14 14 13 12 12 11 11 11 10 9 10 11 11 14 14 13 14 15 14 14 14 13 13 15 16 16 16 16 15 14 13 12 11 11 11 11 12 12 11 11 11 11 10 7 6 5 3 2 2 0 1 2 3 5 6 7 8 8 7 7 9 10 10 10 10 10 10 10 10 10 11 11 11 10
22 23 22 19 16 15 16 16 14 13 14 15 15 14 13 13 13 11 10 10 10 11 12 12 12 13 14 16 15 14 15 14 13 13 15 16 16 16 16 16 15 14 13 12 11 11 10 10 11 11 10 9 10 10 8 7 7 4 2 2 1 3 2 1 1 3 5 6 6 7 7 8 10 11 11 11 10 10 10 10 11 11 11 10 10
22 22 23 21 18 16 17 17 15 15 15 16 16 15 15 15 13 11 9 8 9 11 13 12 10 12 15 15 14 14 15 14 14 14 15 16 16 16 16 16 16 14 13 12 12 11 10 10 10 10 10 9 9 9 8 7 6 4 2 3 3 3 3 2 1 1 3 4 5 7 7 6 9 11 12 11 10 9 9 10 10 10 10 10 9
23 21 22 23 20 17 17 17 16 15 15 16 16 15 16 16 13 11 9 8 9 11 11 11 10 11 13 13 12 12 14 14 14 14 16 17 17 16 16 16 15 14 13 12 12 11 11 10 10 10 11 11 10 9 8 7 6 5 4 4 4 4 3 3 1 1 2 3 3 5 7 7 7 10 12 12 10 9 8 8 9 9 9 8 8
24 21 21 22 19 17 17 18 16 16 16 16 16 15 16 15 13 11 9 8 9 10 10 11 11 11 12 11 10 11 13 14 14 14 15 16 16 16 16 15 13 13 12 11 10 10 11 10 9 10 12 12 11 10 9 8 7 7 5 3 5 5 5 5 3 1 1 2 2 3 6 7 7 8 10 11 11 9 8 8 7 7 7 7 7
24 22 23 22 18 17 18 18 17 16 17 17 16 16 17 16 14 12 10 9 8 7 8 10 11 11 11 10 10 11 12 13 13 14 15 14 14 15 15 14 12 12 11 10 10 10 10 9 9 10 11 11 11 10 9 8 8 8 4 4 6 7 6 7 6 4 2 0 1 1 3 6 6 7 9 10 11 9 8 7 7 6 6 6 7
24 23 25 24 18 17 18 19 18 17 18 18 17 17 20 19 17 14 11 10 8 6 6 8 10 10 10 9 9 11 12 12 12 13 14 13 13 14 14 12 11 10 9 10 11 11 11 10 10 9 9 9 8 7 7 6 8 8 4 4 6 7 7 8 8 8 6 5 3 2 1 3 6 6 7 10 11 10 8 7 6 5 5 5 6
24 25 28 24 19 17 18 19 19 19 19 18 17 18 20 20 18 16 12 10 9 7 6 6 7 8 9 9 9 10 11 11 10 11 11 11 12 12 11 10 9 9 8 10 12 12 11 11 11 10 9 9 7 7 6 6 9 8 4 4 6 6 7 7 8 9 9 9 7 4 2 1 6 7 8 10 11 11 10 7 6 5 5 5 6
24 27 28 25 20 19 19 20 20 20 20 19 17 17 20 19 18 18 15 12 10 8 7 6 6 7 8 8 9 10 10 9 9 9 10 9 9 10 9 9 9 9 9 10 11 11 11 11 11 11 9 9 9 8 8 8 9 8 6 5 4 4 5 6 7 8 8 9 9 5 3 3 5 7 8 10 10 11 10 9 8 7 6 6 6
26 28 28 25 21 22 21 21 21 20 21 20 18 18 20 20 19 18 15 13 12 10 9 8 8 8 9 9 9 10 9 9 8 8 9 8 9 9 9 10 9 8 9 9 10 11 11 11 11 11 10 8 8 7 7 8 9 9 7 5 4 4 5 4 5 6 6 8 9 6 3 4 3 4 6 8 8 8 9 9 9 8 6 5 5
28 28 28 25 22 23 21 20 20 19 20 20 19 20 21 20 20 19 17 15 14 13 11 11 10 10 10 10 10 9 9 8 8 8 8 8 10 10 10 10 9 8 9 9 10 10 11 11 11 11 10 8 7 7 7 7 8 8 6 5 4 5 4 4 6 6 5 6 8 6 4 5 4 1 3 6 6 6 7 8 8 8 8 6 4
29 28 27 25 23 22 22 21 19 19 20 20 21 22 21 21 22 21 19 17 17 16 14 12 11 10 11 11 10 10 10 10 10 10 9 9 10 10 10 10 10 9 9 10 10 10 10 11 12 12 10 9 8 7 7 7 8 8 7 6 5 4 2 3 5 5 5 6 7 7 6 6 4 1 1 3 5 5 5 7 7 7 8 7 5
30 28 26 25 24 23 23 22 20 19 21 22 23 23 21 22 22 20 19 18 18 17 15 13 11 11 11 11 11 11 11 11 10 10 10 10 10 10 10 10 11 10 10 10 11 11 11 10 12 13 12 11 9 8 8 8 9 9 7 6 5 4 1 2 2 3 3 4 6 8 8 7 4 1 1 1 3 3 3 4 5 6 7 7 6
30 29 27 26 26 24 24 23 21 21 22 23 25 24 23 22 21 19 19 18 18 16 14 13 11 11 12 12 12 13 12 12 12 11 10 10 10 10 10 10 11 10 10 10 11 12 11 10 12 13 13 12 10 10 10 10 11 10 7 5 5 4 2 2 1 0 1 2 5 10 10 8 5 1 1 2 1 2 3 3 3 4 4 5 7
30 30 28 26 26 25 25 24 21 22 23 24 26 25 24 23 21 20 19 17 17 16 14 13 13 12 13 13 13 14 14 13 13 12 11 11 11 11 11 11 11 11 11 11 12 12 11 10 11 13 13 13 12 12 11 12 12 10 8 6 5 5 2 3 2 1 1 2 2 8 12 10 7 4 3 4 2 2 2 3 3 3 2 5 8
30 29 29 27 26 26 26 24 22 22 24 25 27 26 25 24 22 21 20 18 17 17 16 14 14 13 14 14 13 14 14 14 13 12 12 12 11 11 12 11 11 12 12 13 13 12 10 9 10 12 13 13 14 13 11 12 13 12 10 7 5 5 2 3 3 2 1 1 2 3 10 12 10 4 3 6 3 1 1 1 2 1 3 6 10
31 30 29 27 25 26 27 26 23 22 24 26 27 27 27 26 24 23 22 19 18 18 17 16 15 15 15 14 13 14 15 14 13 13 12 12 11 11 11 12 13 13 13 13 13 11 10 9 9 12 14 14 15 14 11 12 13 13 12 9 7 6 3 2 2 3 3 3 2 1 5 10 12 7 3 5 3 0 2 2 2 3 5 7 10
Wind_Direction
149 146 143 140 139 139 135 130 126 126 124 125 126 127 125 120 117 115 115 114 114 112 110 109 109 109 110 113 115 118 120 124 125 125 126 127 128 127 127 128 127 126 124 118 117 117 118 118 117 116 116 116 114 115 117 118 116 116 113 111 112 116 125 126 119 117 115 112 110 108 107 106 104 101 101 102 101 99 95 93 95 97 98 97 96
150 148 144 143 142 141 138 133 129 128 125 126 127 126 124 120 118 119 121 121 120 116 115 114 114 115 117 118 120 122 124 128 129 130 130 132 134 133 132 133 132 128 123 119 119 119 121 120 116 117 117 116 113 115 116 116 116 115 113 111 114 119 125 124 119 117 115 113 110 107 107 107 106 104 104 104 102 100 98 95 95 96 96 96 95
152 149 146 144 143 142 141 135 131 129 127 128 128 126 124 122 123 125 127 125 123 120 119 117 116 118 122 124 124 127 128 129 132 133 131 134 134 133 135 136 134 129 125 121 122 122 123 121 117 117 118 117 115 116 117 117 116 113 109 108 113 120 123 122 119 116 115 114 111 110 110 108 106 105 105 105 103 100 99 97 96 95 96 96 95
154 149 146 143 143 144 142 137 133 131 130 130 127 124 122 122 123 125 125 124 122 118 116 115 114 115 120 124 126 130 130 131 135 134 133 138 137 135 139 138 133 131 128 124 123 123 123 122 120 120 119 120 119 118 119 119 117 112 106 103 110 119 121 120 119 116 115 113 112 112 110 108 106 105 104 104 102 100 98 97 95 95 96 96 95
155 151 148 144 145 146 142 138 135 135 132 129 124 119 117 118 120 120 121 121 119 117 115 113 114 116 121 126 129 134 134 137 140 137 137 141 139 138 141 141 137 135 131 127 126 125 125 124 123 123 123 125 123 121 121 120 118 112 107 103 105 114 118 117 115 113 112 112 111 108 106 106 106 106 105 105 103 101 99 97 96 96 96 96 97
157 153 150 147 147 146 142 139 138 137 131 126 121 118 117 116 118 119 120 119 119 118 118 117 119 123 125 129 132 135 137 140 142 139 138 137 137 138 142 142 139 138 134 131 130 127 126 126 127 127 127 128 125 124 124 123 120 113 110 109 108 110 112 112 111 111 111 111 110 108 108 108 106 105 104 103 101 99 99 99 98 97 98 99 100
157 154 152 150 147 146 143 141 140 137 130 127 124 122 119 118 121 122 122 121 121 120 121 121 125 129 128 130 130 132 134 136 138 137 136 135 136 142 145 143 141 140 136 135 130 126 128 128 128 129 129 128 125 126 125 125 122 115 111 113 113 112 112 111 111 111 111 111 110 110 111 109 107 106 106 104 103 102 101 100 98 97 99 101 101
158 155 154 151 148 146 142 143 141 136 130 129 127 126 123 124 127 127 129 127 126 124 124 124 127 129 127 128 128 129 131 134 136 136 137 138 139 143 144 141 141 139 137 136 129 126 128 128 127 128 128 127 124 124 125 124 121 116 112 111 112 112 113 112 111 111 112 112 111 110 110 109 107 108 108 108 108 105 103 101 99 98 99 101 102
158 155 153 150 147 145 144 146 140 134 131 132 129 125 125 128 132 132 133 130 127 127 125 125 126 127 128 129 129 129 131 134 136 137 141 143 143 143 142 140 139 137 136 137 127 125 128 128 127 128 127 125 123 123 123 123 120 117 113 110 110 112 115 115 113 115 114 111 110 109 108 108 107 107 108 109 108 106 104 102 99 98 97 98 99
156 152 151 148 146 145 146 145 137 135 135 134 129 127 129 132 134 132 131 128 127 125 124 124 123 124 126 128 128 129 131 133 135 139 143 143 144 141 138 136 137 136 137 135 127 126 128 128 128 128 128 125 122 121 123 124 123 120 116 112 112 113 116 118 117 117 114 110 109 108 107 107 108 108 109 110 109 107 105 101 98 97 96 95 96
154 151 149 148 146 147 147 143 138 139 137 135 133 134 136 134 132 128 128 127 125 122 121 121 121 122 124 125 126 128 130 131 133 136 139 140 142 139 135 132 135 139 138 133 127 128 129 128 129 128 127 124 123 123 123 123 123 121 117 114 112 114 118 118 115 114 112 110 108 108 109 111 111 109 108 109 109 109 108 104 102 99 96 93 94
153 151 150 149 148 147 146 143 143 142 140 140 140 141 137 132 129 129 130 127 123 121 121 120 121 123 123 124 127 127 127 127 128 128 131 136 136 135 133 129 132 138 135 131 129 130 130 130 129 128 127 125 125 124 123 122 122 121 119 116 115 118 122 117 112 111 111 109 108 109 111 113 114 115 113 112 113 114 112 110 106 100 94 92 95
152 152 152 150 147 148 147 146 147 144 144 146 145 141 133 130 130 130 129 124 121 120 121 120 121 124 123 125 125 124 124 123 124 124 127 130 130 130 128 125 130 135 134 131 130 130 130 130 128 128 129 128 128 125 124 123 122 122 120 118 117 120 119 112 109 110 110 109 106 105 104 104 107 115 122 122 121 118 116 112 105 98 94 93 97
152 153 151 150 148 148 149 149 148 146 147 147 145 138 132 131 130 130 127 123 121 120 121 120 121 123 123 123 122 121 121 121 123 123 124 125 125 127 126 126 130 133 133 131 130 131 131 131 129 129 130 130 129 126 125 124 124 123 120 117 118 119 115 111 111 112 112 109 104 100 98 96 98 106 117 125 126 122 118 113 105 101 99 97 100
152 152 152 151 148 151 153 152 147 145 148 146 142 135 132 131 129 130 128 126 124 123 123 121 121 120 122 121 121 120 118 119 121 122 122 123 124 126 126 126 130 131 132 131 133 134 134 134 131 131 131 129 130 128 127 125 125 124 119 117 118 118 116 115 116 115 113 108 102 99 96 95 97 101 106 115 123 125 122 117 113 109 104 103 103
153 152 153 151 150 155 155 151 146 146 148 144 140 135 133 131 129 131 129 129 127 126 125 122 122 120 121 120 119 119 118 118 118 119 119 121 123 125 126 126 130 131 132 132 135 136 136 136 134 132 130 130 133 130 127 126 125 123 119 116 117 116 117 120 120 119 114 108 103 99 96 95 96 100 104 110 117 121 123 123 120 113 106 105 103
155 155 154 154 155 156 154 149 149 151 149 142 140 137 135 131 130 132 131 130 129 128 126 124 122 119 117 115 117 117 116 117 117 118 118 119 121 123 124 127 129 131 132 133 135 136 137 138 136 134 131 133 136 131 127 126 126 123 118 117 118 120 123 124 123 122 117 109 103 100 98 96 96 99 105 109 112 116 120 122 119 112 108 105 104
157 158 156 155 155 156 154 151 153 154 151 146 141 136 134 131 131 135 134 131 130 129 126 123 119 115 113 113 115 116 115 116 117 118 118 119 120 120 122 126 130 132 134 134 135 137 138 141 141 140 137 138 137 130 128 127 127 124 120 119 123 126 125 124 124 123 119 112 105 101 99 98 99 101 104 105 107 112 117 119 117 112 109 106 104
158 159 157 156 157 158 156 154 158 156 154 147 138 135 136 133 134 136 135 132 130 129 126 122 119 115 114 114 116 118 118 115 116 118 119 119 119 120 123 127 131 132 134 135 137 138 139 142 145 143 140 141 137 130 129 129 130 127 123 124 127 126 121 122 124 123 120 114 106 102 102 103 105 105 104 103 104 110 115 117 114 110 108 104 101
158 160 159 160 160 159 156 155 158 154 153 145 137 139 139 137 136 136 136 133 130 130 129 125 124 121 120 120 121 123 121 119 119 120 121 122 121 123 126 130 133 134 135 137 138 139 141 142 144 142 139 140 137 130 128 129 130 128 126 130 129 121 120 125 124 122 121 113 107 106 109 111 112 110 107 105 106 107 108 109 108 106 103 98 95
160 162 163 164 161 159 154 152 153 151 151 144 139 141 142 143 140 138 137 134 132 133 132 130 129 127 126 126 125 127 125 124 124 123 123 123 123 125 128 132 134 136 137 138 139 141 142 142 143 142 139 138 135 130 130 131 130 129 131 129 120 115 120 125 122 119 116 111 110 113 116 117 116 113 111 110 107 103 100 101 103 102 97 90 87
162 165 168 165 161 159 155 153 151 149 150 147 146 146 148 148 142 140 139 138 138 137 135 133 133 129 129 129 127 127 127 126 126 125 126 126 127 130 131 132 134 136 136 137 138 140 140 141 144 144 139 134 132 129 127 127 126 128 127 115 110 115 121 120 118 114 111 110 113 118 119 119 118 115 114 111 105 97 95 99 102 98 93 88 82
165 167 166 163 161 160 156 155 149 147 152 152 152 151 150 147 144 143 142 144 143 140 139 136 134 132 131 130 128 128 128 128 127 128 129 129 130 132 132 132 133 135 135 134 134 135 136 137 140 140 136 132 128 122 118 118 119 120 114 104 103 108 113 113 112 110 109 111 114 119 120 120 120 117 115 109 102 96 96 102 101 96 92 89 82
167 166 162 162 161 160 157 153 149 148 154 156 156 153 149 147 147 146 144 146 145 143 142 139 137 135 133 132 131 131 132 133 132 132 132 132 132 132 133 133 134 135 134 132 131 131 132 134 135 134 131 126 118 113 113 113 112 112 103 93 90 94 101 105 109 112 114 114 118 120 117 119 119 118 115 107 101 99 100 98 95 92 88 84 73
166 163 161 161 161 163 158 152 151 152 157 159 157 154 151 149 149 149 147 146 146 145 143 141 139 138 137 137 135 134 136 136 135 134 134 134 134 134 134 133 132 131 131 131 129 128 129 130 129 126 121 113 107 105 107 109 106 101 91 79 75 82 87 93 107 121 128 124 124 119 110 115 117 116 113 108 106 106 100 91 87 82 76 75 59
166 164 164 164 164 166 159 154 155 154 156 159 158 156 153 152 152 152 150 147 146 145 142 142 142 142 141 141 139 140 140 137 135 135 136 136 134 133 131 129 128 127 127 126 124 123 123 123 121 116 113 110 106 105 105 105 100 85 77 71 67 71 71 76 100 126 142 137 127 117 109 112 112 108 104 103 109 102 89 77 72 69 57 49 38
168 168 169 168 167 166 159 157 159 155 156 161 162 160 156 156 157 156 153 147 144 144 143 143 143 144 143 140 140 143 143 139 137 136 135 135 134 133 132 131 129 128 127 125 122 122 122 122 120 119 117 113 108 108 109 109 104 76 63 66 66 70 71 70 85 110 129 128 118 111 107 107 107 102 98 98 95 81 72 66 55 46 34 27 30
172 172 174 170 167 165 160 160 163 161 158 161 164 162 161 161 161 159 154 148 144 143 142 142 143 143 142 140 140 143 143 140 138 135 134 134 134 134 134 134 131 130 130 129 128 127 128 128 128 130 130 125 116 113 112 112 113 89 49 57 67 72 75 76 82 94 102 105 102 102 104 103 103 99 96 92 81 73 59 52 43 32 30 29 34
176 174 176 171 167 167 163 162 166 164 160 162 162 162 166 164 162 159 154 151 147 142 142 143 143 142 142 141 139 141 141 139 138 135 134 134 135 137 135 134 132 131 132 134 134 133 133 131 132 134 137 135 127 119 116 120 121 126 36 39 57 73 80 80 82 85 87 89 92 94 100 100 101 97 96 91 78 76 67 59 49 38 40 39 40
178 173 174 171 167 169 165 161 164 162 160 162 161 162 165 163 161 158 154 152 147 142 145 147 145 143 143 143 142 144 143 141 140 139 138 138 138 139 138 136 135 136 138 140 140 138 135 132 131 131 132 133 129 120 116 125 128 131 97 44 63 89 89 76 68 73 78 81 83 83 87 91 95 95 93 92 90 92 84 79 71 63 61 57 54
177 172 172 168 166 168 165 161 163 161 160 162 161 161 163 163 162 159 156 155 152 150 152 153 152 151 151 150 150 151 151 149 146 145 146 146 145 143 143 144 142 142 142 144 145 142 137 134 133 133 134 132 128 119 106 112 118 106 86 66 77 91 88 69 55 57 62 65 72 71 74 80 85 91 93 97 97 93 87 82 78 76 75 72 67
177 174 172 166 161 165 167 165 166 162 160 161 161 162 163 165 165 163 160 160 162 160 161 162 159 161 164 162 159 160 161 158 152 149 150 151 150 148 149 151 150 148 146 148 150 146 142 138 137 139 139 139 141 131 109 104 107 97 80 66 73 80 74 62 54 54 52 51 67 70 69 74 80 89 93 95 92 87 83 81 80 81 80 76 73
175 175 173 165 159 166 169 167 167 164 159 159 161 163 164 166 166 167 166 165 165 162 166 169 166 169 171 167 162 163 165 164 158 154 154 152 151 151 152 154 154 153 150 149 151 149 148 147 146 148 149 153 160 157 140 129 117 101 83 56 56 64 61 58 52 49 42 40 57 67 64 67 77 86 88 88 85 84 82 81 82 83 82 79 76
171 172 173 168 164 170 171 164 163 163 161 161 162 162 164 164 163 167 168 165 163 165 170 172 174 172 167 163 158 161 166 168 163 158 156 154 153 154 156 157 155 153 149 149 152 153 155 155 156 158 159 159 164 168 165 160 157 137 106 59 28 41 55 55 49 49 46 48 58 68 79 74 75 79 81 83 83 83 84 83 84 82 81 79 77
171 171 174 174 172 175 172 163 159 161 164 163 162 161 160 158 157 163 161 157 161 169 172 168 171 171 162 157 156 159 165 166 163 157 155 155 156 160 161 159 155 152 150 152 154 154 155 159 164 166 164 160 160 167 170 165 162 147 117 119 120 347 42 45 43 52 52 58 62 69 87 83 74 74 77 79 81 83 84 84 85 83 81 79 76
172 171 175 180 181 180 173 166 159 160 164 162 161 160 158 156 153 156 151 150 157 163 167 159 158 164 160 157 157 159 162 164 162 157 157 156 155 159 161 158 156 155 154 156 157 155 155 158 165 168 167 163 157 164 171 164 156 146 143 147 203 286 296 324 10 39 39 54 62 66 83 80 70 70 74 75 76 80 83 86 86 85 84 80 76
176 175 178 184 185 184 176 168 161 161 163 161 164 162 160 158 151 147 140 145 152 155 162 157 149 157 160 159 156 156 159 162 160 158 158 157 154 154 156 156 158 159 158 161 162 156 155 157 160 161 162 162 156 160 168 165 162 163 178 184 213 255 268 287 324 353 19 50 64 66 71 69 65 69 72 73 73 75 81 88 90 88 86 81 76
181 180 182 184 186 186 177 169 163 163 165 165 168 166 161 157 144 135 130 132 145 152 159 156 150 154 159 159 155 155 158 158 157 158 159 157 157 156 157 159 160 162 162 165 164 155 153 152 150 152 158 158 152 156 161 162 172 172 164 177 197 214 243 267 306 1 36 54 68 70 63 57 63 69 70 70 70 73 78 84 88 89 86 82 75
182 186 184 183 187 187 177 173 167 164 169 170 168 162 159 155 142 137 138 136 141 149 155 155 154 156 159 158 156 159 158 155 156 157 159 160 162 163 162 163 164 165 165 166 165 157 153 150 147 150 158 161 158 163 166 164 169 169 170 210 216 211 229 247 263 262 97 57 46 66 59 52 62 75 73 69 69 73 80 78 80 81 78 77 71
183 187 185 186 189 184 179 179 172 169 174 170 165 160 159 160 158 161 163 160 153 147 152 156 158 158 160 162 161 162 159 156 157 158 162 166 168 171 170 168 168 169 168 169 171 164 161 163 161 156 159 164 166 175 182 182 183 180 198 253 230 213 214 224 239 246 233 280 11 19 45 45 58 78 77 74 73 76 79 72 68 66 65 68 64
183 186 186 189 191 183 182 184 177 179 181 173 169 167 164 165 167 175 177 172 174 170 165 163 164 164 164 168 165 164 162 159 160 162 166 168 170 173 172 170 168 170 172 174 176 172 171 178 175 165 162 163 167 180 191 190 189 192 213 227 205 202 204 210 225 240 252 262 273 286 309 44 57 78 89 87 82 79 77 70 63 57 54 60 62
183 186 188 191 194 189 187 189 184 185 186 180 178 173 171 167 163 171 178 178 185 191 187 175 173 178 174 174 173 172 170 169 168 169 170 171 172 170 170 172 169 171 179 181 181 179 178 181 177 171 169 169 174 182 185 182 187 196 200 186 185 191 201 210 221 232 244 250 251 251 222 97 63 76 96 94 88 84 79 75 72 64 55 58 64
182 187 192 195 197 197 194 194 190 186 186 186 184 177 174 170 163 168 177 182 191 203 205 193 191 200 193 185 183 182 183 183 181 179 177 177 178 175 176 182 178 178 184 185 187 189 187 186 181 177 174 175 180 183 185 191 197 193 181 180 194 210 219 220 218 218 221 226 231 227 201 171 76 78 97 94 90 88 79 71 69 67 60 65 72
183 186 192 196 200 201 198 195 192 188 188 187 185 179 174 171 167 171 179 186 193 206 212 204 199 203 203 201 195 191 193 192 191 190 187 187 188 186 187 192 188 182 186 186 189 193 193 192 188 183 180 178 178 180 185 194 196 190 187 197 226 249 256 247 231 222 208 209 217 217 197 177 119 83 96 95 86 82 73 65 62 58 52 63 78
184 188 193 199 203 202 198 195 193 190 189 186 181 178 174 171 172 175 184 191 195 204 208 201 198 199 202 204 203 202 199 198 201 204 201 198 197 194 192 196 195 188 188 188 188 193 195 194 194 191 188 187 185 190 199 198 194 199 212 224 246 260 268 273 260 251 233 219 219 223 218 187 172 67 78 92 85 79 71 66 62 49 40 46 63
187 191 197 202 203 201 200 199 197 193 190 185 180 179 175 174 178 180 186 193 195 200 203 199 194 199 203 203 205 204 201 202 203 205 205 202 201 200 195 196 198 195 193 193 192 195 198 198 198 196 192 194 197 203 213 209 202 213 228 236 255 266 272 295 270 246 238 244 235 229 227 203 189 303 17 96 90 87 76 73 69 47 30 29 38
190 194 198 202 202 202 202 204 204 197 190 184 182 181 178 177 183 186 189 195 196 197 202 202 198 202 205 203 206 202 199 204 205 206 208 204 204 204 200 197 198 198 198 200 200 200 201 201 198 196 191 194 207 217 222 218 209 213 220 222 237 243 245 327 288 230 218 235 231 226 226 210 193 343 332 136 96 88 67 63 65 50 27 18 33
191 195 198 202 204 204 205 208 209 200 191 186 185 184 182 181 186 192 195 199 201 200 202 205 207 210 207 202 205 202 199 203 204 207 207 204 205 204 202 201 200 201 202 206 206 203 205 203 198 197 195 198 215 225 226 221 212 213 217 215 220 220 231 316 331 352 109 151 205 218 219 212 211 238 271 238 133 91 56 45 47 49 24 1 22
194 197 200 202 206 208 208 210 210 201 194 190 189 187 185 184 191 199 202 203 205 204 205 209 212 210 204 202 204 201 199 202 202 203 204 204 206 204 202 204 203 203 204 208 208 207 209 208 203 204 205 207 216 225 225 218 213 215 221 222 213 204 237 286 277 308 72 86 172 216 217 216 221 232 239 233 200 102 85 59 43 41 345 327 359
198 199 201 203 206 209 209 211 211 203 196 195 192 190 188 188 195 203 206 206 204 203 205 207 211 208 198 198 203 201 200 202 201 201 203 205 205 205 205 205 206 207 207 209 211 214 215 215 213 213 214 213 217 223 221 211 211 213 218 223 209 204 257 276 247 272 268 74 40 214 218 221 224 234 234 221 212 92 138 86 41 350 281 310 345
198 199 200 203 206 209 209 211 212 205 198 197 195 193 191 192 197 203 207 208 203 201 201 198 204 206 196 195 201 205 205 201 200 200 201 204 207 208 209 207 209 211 210 210 214 221 223 223 225 220 219 218 217 221 219 210 211 214 217 220 209 216 266 292 255 294 295 281 339 80 201 222 228 234 208 185 181 177 231 260 287 280 293 311 338